QPF
0.00 0.00 0.00 0.00 0.00 0.00 0.00 0.00 0.00 0.00 0.00 0.00 0.00 0.00 0.00 0.00 0.00 0.00 0.00 0.00 0.00 0.00 0.00 0.00 0.00 0.00 0.00 0.00 0.00 0.00 0.00 0.00 0.00 0.00 0.00 0.00 0.00 0.00 0.00 0.00 0.00 0.00 0.00 0.00 0.00 0.00 0.00 0.00 0.00
0.00 0.00 0.00 0.00 0.00 0.00 0.00 0.00 0.00 0.00 0.00 0.00 0.00 0.00 0.00 0.00 0.00 0.00 0.00 0.00 0.00 0.00 0.00 0.00 0.00 0.00 0.00 0.00 0.00 0.00 0.00 0.00 0.00 0.00 0.00 0.00 0.00 0.00 0.00 0.00 0.00 0.00 0.00 0.00 0.00 0.00 0.00 0.00 0.00
0.00 0.00 0.00 0.00 0.00 0.00 0.00 0.00 0.00 0.00 0.00 0.00 0.00 0.00 0.00 0.00 0.00 0.00 0.00 0.00 0.00 0.00 0.00 0.00 0.00 0.00 0.00 0.00 0.00 0.00 0.00 0.00 0.00 0.00 0.00 0.00 0.00 0.00 0.00 0.00 0.00 0.00 0.00 0.00 0.00 0.00 0.00 0.00 0.00
0.00 0.00 0.00 0.00 0.00 0.00 0.00 0.00 0.00 0.00 0.00 0.00 0.00 0.00 0.00 0.00 0.00 0.00 0.00 0.00 0.00 0.00 0.00 0.00 0.00 0.00 0.00 0.00 0.00 0.00 0.00 0.00 0.00 0.00 0.00 0.00 0.00 0.00 0.00 0.00 0.00 0.00 0.00 0.00 0.00 0.00 0.00 0.00 0.00
0.00 0.00 0.00 0.00 0.00 0.00 0.00 0.00 0.00 0.00 0.00 0.00 0.00 0.00 0.00 0.00 0.00 0.00 0.00 0.00 0.00 0.00 0.00 0.00 0.00 0.00 0.00 0.00 0.00 0.00 0.00 0.00 0.00 0.00 0.00 0.00 0.00 0.00 0.00 0.00 0.00 0.00 0.00 0.00 0.00 0.00 0.00 0.00 0.00
0.00 0.00 0.00 0.00 0.00 0.00 0.00 0.00 0.00 0.00 0.00 0.00 0.00 0.00 0.00 0.00 0.00 0.00 0.00 0.00 0.00 0.00 0.00 0.00 0.00 0.00 0.00 0.00 0.00 0.00 0.00 0.00 0.00 0.00 0.00 0.00 0.00 0.00 0.00 0.00 0.00 0.00 0.00 0.00 0.00 0.00 0.00 0.00 0.00
0.00 0.00 0.00 0.00 0.00 0.00 0.00 0.00 0.00 0.00 0.00 0.00 0.00 0.00 0.00 0.00 0.00 0.00 0.00 0.00 0.00 0.00 0.00 0.00 0.00 0.00 0.00 0.00 0.00 0.00 0.00 0.00 0.00 0.00 0.00 0.00 0.00 0.00 0.00 0.00 0.00 0.00 0.00 0.00 0.00 0.00 0.00 0.00 0.00
0.00 0.00 0.00 0.00 0.00 0.00 0.00 0.00 0.00 0.00 0.00 0.00 0.00 0.01 0.00 0.00 0.00 0.00 0.00 0.00 0.00 0.00 0.00 0.00 0.00 0.00 0.00 0.00 0.00 0.00 0.00 0.00 0.00 0.00 0.00 0.00 0.00 0.00 0.00 0.00 0.00 0.00 0.00 0.00 0.00 0.00 0.00 0.00 0.00
0.00 0.00 0.00 0.00 0.00 0.00 0.00 0.00 0.00 0.00 0.00 0.00 0.00 0.00 0.00 0.00 0.00 0.00 0.00 0.00 0.00 0.00 0.00 0.00 0.00 0.00 0.00 0.00 0.00 0.00 0.00 0.00 0.00 0.00 0.00 0.00 0.00 0.00 0.00 0.00 0.00 0.00 0.00 0.00 0.00 0.00 0.00 0.00 0.00
0.00 0.00 0.00 0.00 0.00 0.00 0.00 0.00 0.00 0.00 0.00 0.00 0.00 0.00 0.00 0.00 0.00 0.00 0.00 0.00 0.00 0.00 0.00 0.00 0.00 0.00 0.00 0.00 0.00 0.00 0.00 0.00 0.00 0.00 0.00 0.00 0.00 0.00 0.00 0.00 0.00 0.00 0.00 0.00 0.00 0.00 0.00 0.00 0.00
0.00 0.00 0.00 0.00 0.00 0.00 0.00 0.00 0.00 0.00 0.00 0.00 0.00 0.00 0.01 0.01 0.00 0.00 0.00 0.00 0.00 0.00 0.00 0.00 0.00 0.00 0.00 0.00 0.00 0.00 0.00 0.00 0.00 0.00 0.00 0.00 0.00 0.00 0.00 0.00 0.00 0.00 0.00 0.00 0.00 0.00 0.00 0.00 0.00
0.00 0.00 0.00 0.00 0.00 0.00 0.00 0.00 0.00 0.00 0.00 0.00 0.00 0.00 0.00 0.00 0.00 0.00 0.00 0.00 0.00 0.00 0.00 0.00 0.00 0.00 0.00 0.00 0.00 0.00 0.00 0.00 0.00 0.00 0.00 0.00 0.00 0.00 0.00 0.00 0.00 0.00 0.00 0.00 0.00 0.00 0.00 0.00 0.00
0.00 0.00 0.00 0.00 0.00 0.00 0.00 0.00 0.00 0.00 0.00 0.00 0.00 0.00 0.00 0.00 0.00 0.00 0.00 0.00 0.00 0.00 0.00 0.00 0.00 0.00 0.00 0.00 0.00 0.00 0.00 0.00 0.00 0.00 0.00 0.00 0.00 0.00 0.00 0.00 0.00 0.00 0.00 0.00 0.00 0.00 0.00 0.00 0.00
0.00 0.00 0.00 0.00 0.00 0.00 0.00 0.00 0.00 0.00 0.00 0.00 0.00 0.00 0.00 0.00 0.00 0.00 0.00 0.00 0.00 0.00 0.00 0.00 0.00 0.00 0.00 0.00 0.00 0.00 0.00 0.00 0.00 0.00 0.00 0.00 0.00 0.00 0.00 0.00 0.00 0.00 0.00 0.00 0.00 0.00 0.00 0.00 0.00
0.00 0.00 0.00 0.00 0.00 0.00 0.00 0.00 0.00 0.00 0.00 0.00 0.00 0.00 0.00 0.00 0.00 0.00 0.00 0.00 0.00 0.00 0.00 0.00 0.00 0.00 0.00 0.00 0.00 0.00 0.00 0.00 0.00 0.00 0.00 0.00 0.00 0.00 0.00 0.00 0.01 0.00 0.00 0.00 0.00 0.00 0.00 0.00 0.00
0.00 0.00 0.00 0.00 0.00 0.00 0.00 0.00 0.00 0.00 0.00 0.00 0.00 0.00 0.00 0.00 0.00 0.00 0.00 0.00 0.00 0.00 0.00 0.00 0.00 0.00 0.00 0.00 0.00 0.00 0.00 0.00 0.00 0.00 0.00 0.00 0.00 0.00 0.00 0.00 0.01 0.01 0.00 0.00 0.00 0.00 0.01 0.00 0.00
0.00 0.00 0.00 0.00 0.00 0.00 0.00 0.00 0.00 0.00 0.00 0.00 0.00 0.00 0.00 0.00 0.00 0.00 0.00 0.00 0.00 0.00 0.00 0.00 0.00 0.00 0.00 0.02 0.02 0.00 0.00 0.00 0.00 0.00 0.00 0.00 0.00 0.00 0.00 0.00 0.00 0.01 0.00 0.05 0.03 0.03 0.05 0.01 0.00
0.00 0.00 0.00 0.00 0.00 0.00 0.00 0.00 0.00 0.00 0.00 0.00 0.00 0.00 0.00 0.00 0.00 0.00 0.00 0.00 0.00 0.00 0.00 0.00 0.00 0.00 0.00 0.02 0.02 0.00 0.00 0.00 0.00 0.00 0.00 0.00 0.00 0.00 0.00 0.00 0.00 0.00 0.00 0.00 0.00 0.00 0.00 0.00 0.00
0.00 0.00 0.00 0.00 0.00 0.00 0.00 0.00 0.00 0.00 0.00 0.00 0.00 0.00 0.00 0.00 0.00 0.00 0.00 0.00 0.00 0.00 0.00 0.00 0.00 0.00 0.00 0.01 0.01 0.00 0.00 0.00 0.00 0.00 0.00 0.00 0.00 0.00 0.00 0.00 0.00 0.00 0.00 0.00 0.00 0.00 0.00 0.00 0.00
0.00 0.00 0.00 0.00 0.00 0.00 0.00 0.00 0.00 0.00 0.00 0.00 0.00 0.00 0.00 0.00 0.00 0.00 0.00 0.00 0.00 0.00 0.00 0.00 0.00 0.00 0.00 0.01 0.01 0.01 0.00 0.00 0.00 0.00 0.00 0.00 0.00 0.00 0.00 0.00 0.00 0.00 0.00 0.00 0.00 0.00 0.00 0.00 0.00
0.00 0.00 0.00 0.00 0.00 0.00 0.00 0.00 0.00 0.00 0.00 0.00 0.00 0.00 0.00 0.00 0.00 0.00 0.00 0.00 0.00 0.00 0.00 0.00 0.00 0.00 0.00 0.00 0.00 0.00 0.00 0.00 0.00 0.00 0.00 0.00 0.00 0.00 0.00 0.00 0.00 0.00 0.00 0.00 0.00 0.00 0.00 0.00 0.00
0.00 0.00 0.00 0.00 0.00 0.00 0.00 0.00 0.00 0.00 0.00 0.00 0.00 0.00 0.00 0.00 0.00 0.00 0.00 0.00 0.00 0.00 0.00 0.00 0.00 0.00 0.00 0.00 0.00 0.00 0.00 0.00 0.00 0.00 0.00 0.00 0.00 0.00 0.00 0.00 0.00 0.00 0.00 0.00 0.00 0.00 0.00 0.00 0.00
0.00 0.00 0.00 0.00 0.00 0.00 0.00 0.00 0.00 0.00 0.00 0.00 0.00 0.00 0.00 0.00 0.00 0.00 0.00 0.00 0.00 0.00 0.00 0.00 0.00 0.00 0.00 0.00 0.00 0.00 0.00 0.00 0.00 0.00 0.00 0.00 0.00 0.00 0.00 0.00 0.00 0.00 0.00 0.00 0.00 0.00 0.00 0.00 0.00
0.00 0.00 0.00 0.00 0.00 0.00 0.00 0.00 0.00 0.00 0.00 0.00 0.00 0.00 0.00 0.00 0.00 0.00 0.00 0.00 0.00 0.00 0.00 0.00 0.00 0.00 0.00 0.00 0.00 0.00 0.00 0.00 0.00 0.00 0.00 0.00 0.00 0.00 0.00 0.00 0.00 0.00 0.00 0.00 0.00 0.00 0.00 0.00 0.00
0.00 0.00 0.00 0.00 0.00 0.00 0.00 0.00 0.00 0.00 0.00 0.00 0.00 0.00 0.00 0.00 0.00 0.00 0.00 0.00 0.00 0.00 0.00 0.00 0.00 0.00 0.00 0.00 0.00 0.00 0.00 0.00 0.00 0.00 0.00 0.00 0.00 0.00 0.00 0.00 0.00 0.00 0.00 0.00 0.00 0.00 0.00 0.00 0.00
0.00 0.00 0.00 0.00 0.00 0.00 0.00 0.00 0.00 0.00 0.00 0.00 0.00 0.00 0.00 0.00 0.00 0.00 0.00 0.00 0.00 0.00 0.00 0.00 0.00 0.00 0.00 0.00 0.00 0.00 0.00 0.00 0.00 0.00 0.00 0.00 0.00 0.00 0.00 0.00 0.00 0.00 0.00 0.00 0.00 0.00 0.00 0.00 0.00
0.00 0.00 0.00 0.00 0.00 0.00 0.00 0.00 0.00 0.00 0.00 0.00 0.00 0.00 0.00 0.00 0.00 0.00 0.00 0.00 0.00 0.00 0.00 0.00 0.00 0.00 0.00 0.00 0.00 0.00 0.00 0.00 0.00 0.00 0.00 0.00 0.00 0.00 0.00 0.00 0.00 0.00 0.00 0.00 0.00 0.00 0.00 0.00 0.00
0.00 0.00 0.00 0.00 0.00 0.00 0.00 0.00 0.00 0.00 0.00 0.00 0.00 0.00 0.00 0.00 0.00 0.00 0.00 0.00 0.00 0.00 0.00 0.00 0.00 0.00 0.00 0.00 0.00 0.00 0.00 0.00 0.00 0.00 0.00 0.00 0.00 0.00 0.00 0.00 0.00 0.00 0.00 0.00 0.00 0.00 0.00 0.00 0.00
0.00 0.00 0.00 0.00 0.00 0.00 0.00 0.00 0.00 0.00 0.00 0.00 0.00 0.00 0.00 0.00 0.00 0.00 0.00 0.00 0.00 0.00 0.00 0.00 0.00 0.00 0.00 0.00 0.00 0.00 0.00 0.00 0.00 0.00 0.00 0.00 0.00 0.00 0.00 0.00 0.00 0.00 0.00 0.00 0.00 0.00 0.00 0.00 0.00
0.00 0.00 0.00 0.00 0.00 0.00 0.00 0.00 0.00 0.00 0.00 0.00 0.00 0.00 0.00 0.00 0.00 0.00 0.00 0.00 0.00 0.00 0.00 0.00 0.00 0.00 0.00 0.00 0.00 0.00 0.00 0.00 0.00 0.00 0.00 0.00 0.00 0.00 0.00 0.00 0.00 0.00 0.00 0.00 0.00 0.00 0.00 0.00 0.00
MSLP
1012.30 1011.95 1011.77 1011.24 1011.16 1010.52 1009.31 1008.71 1008.31 1007.42 1006.74 1006.38 1006.28 1005.78 1005.46 1005.46 1005.35 1006.09 1006.96 1007.36 1007.76 1008.25 1008.93 1009.64 1010.22 1010.61 1010.99 1011.23 1011.28 1011.49 1011.83 1012.17 1012.45 1012.73 1013.04 1013.19 1013.44 1013.88 1014.25 1014.44 1014.79 1015.06 1015.32 1015.57 1015.72 1015.84 1015.94 1016.08 1016.19
1012.03 1011.76 1011.55 1011.20 1010.61 1009.64 1008.80 1008.60 1007.88 1007.57 1007.13 1006.40 1005.71 1005.41 1005.43 1005.17 1005.94 1006.58 1006.98 1007.71 1007.93 1008.63 1009.21 1009.88 1010.53 1010.80 1011.16 1011.44 1011.67 1011.76 1011.99 1012.31 1012.60 1012.88 1013.16 1013.37 1013.72 1014.03 1014.34 1014.65 1015.02 1015.30 1015.54 1015.75 1015.90 1015.99 1016.12 1016.27 1016.32
1011.95 1011.78 1011.20 1010.84 1010.21 1009.04 1008.47 1008.19 1007.76 1007.64 1007.13 1006.44 1005.77 1005.35 1005.33 1005.56 1006.16 1006.56 1006.94 1007.68 1008.09 1008.71 1009.40 1010.01 1010.73 1011.01 1011.42 1011.71 1011.88 1011.99 1012.13 1012.42 1012.75 1013.01 1013.17 1013.56 1014.04 1014.24 1014.54 1014.81 1015.10 1015.39 1015.65 1015.86 1016.00 1016.11 1016.28 1016.38 1016.47
1011.55 1011.61 1012.03 1010.88 1009.52 1009.38 1008.64 1008.19 1008.19 1007.44 1006.64 1006.36 1006.03 1005.39 1005.73 1006.38 1006.34 1006.68 1007.33 1007.91 1008.30 1008.87 1009.34 1010.25 1010.69 1011.05 1011.45 1011.72 1012.16 1012.24 1012.43 1012.63 1012.88 1013.12 1013.42 1013.74 1014.12 1014.47 1014.77 1015.01 1015.27 1015.52 1015.74 1015.95 1016.11 1016.27 1016.46 1016.59 1016.71
1011.77 1011.37 1010.84 1010.29 1009.42 1009.27 1008.96 1008.56 1008.06 1007.58 1006.84 1006.30 1006.27 1005.49 1005.77 1006.63 1006.98 1007.32 1007.74 1008.05 1008.13 1008.74 1009.28 1010.01 1010.61 1011.01 1011.42 1011.61 1011.99 1012.33 1012.53 1012.83 1013.10 1013.36 1013.59 1013.92 1014.26 1014.53 1014.85 1015.18 1015.42 1015.64 1015.85 1016.02 1016.20 1016.39 1016.56 1016.71 1016.82
1011.40 1011.25 1010.36 1009.46 1009.16 1009.41 1009.12 1008.46 1008.12 1007.70 1006.86 1006.38 1006.09 1005.94 1006.19 1006.99 1007.21 1007.57 1007.96 1008.17 1008.47 1008.90 1009.26 1009.89 1010.72 1011.01 1011.40 1011.64 1011.89 1012.24 1012.60 1012.88 1013.21 1013.49 1013.76 1013.99 1014.36 1014.66 1014.96 1015.22 1015.47 1015.71 1015.94 1016.10 1016.28 1016.44 1016.60 1016.77 1016.88
1010.90 1010.75 1009.75 1009.56 1009.35 1009.19 1009.01 1008.62 1008.02 1007.36 1006.74 1006.35 1006.27 1005.84 1006.18 1007.03 1007.37 1007.86 1008.18 1008.44 1008.73 1009.07 1009.54 1009.91 1010.48 1011.09 1011.50 1011.90 1012.13 1012.32 1012.64 1012.85 1013.11 1013.45 1013.83 1014.13 1014.47 1014.74 1015.04 1015.29 1015.47 1015.68 1015.92 1016.16 1016.33 1016.47 1016.61 1016.76 1016.85
1011.51 1010.95 1010.13 1009.94 1009.42 1008.69 1008.65 1008.39 1007.95 1007.51 1006.74 1006.52 1006.18 1005.96 1006.05 1006.90 1007.80 1008.12 1008.49 1008.68 1009.04 1009.04 1009.45 1009.91 1010.43 1010.86 1011.31 1011.82 1012.26 1012.41 1012.74 1013.02 1013.33 1013.64 1013.97 1014.33 1014.71 1015.03 1015.21 1015.37 1015.57 1015.77 1015.97 1016.13 1016.29 1016.48 1016.63 1016.72 1016.81
1012.10 1011.11 1009.89 1009.81 1009.65 1008.79 1008.92 1008.56 1007.98 1007.78 1007.19 1006.86 1006.71 1006.10 1006.31 1007.16 1007.86 1008.23 1008.46 1008.78 1008.99 1009.38 1009.50 1009.87 1010.40 1010.79 1011.26 1011.58 1012.26 1012.85 1013.13 1013.35 1013.66 1013.95 1014.25 1014.57 1014.55 1014.88 1015.15 1015.33 1015.62 1015.89 1016.05 1016.19 1016.33 1016.46 1016.58 1016.68 1016.74
1011.48 1010.79 1010.24 1010.11 1009.60 1009.07 1008.85 1008.58 1008.20 1007.89 1007.18 1006.86 1006.81 1006.33 1006.54 1007.22 1007.61 1007.80 1007.99 1008.28 1008.60 1008.98 1009.61 1009.80 1010.30 1010.68 1011.14 1011.65 1012.09 1012.64 1013.00 1013.27 1013.60 1013.95 1014.25 1014.38 1014.66 1014.86 1014.99 1015.25 1015.75 1015.90 1016.03 1016.11 1016.20 1016.34 1016.49 1016.61 1016.10
1011.61 1010.64 1010.54 1010.18 1009.75 1009.37 1008.67 1008.64 1008.73 1008.05 1007.03 1006.76 1006.79 1006.14 1006.43 1006.87 1007.54 1007.55 1007.62 1007.82 1008.24 1008.81 1009.22 1009.88 1010.46 1010.72 1011.05 1011.35 1011.97 1012.34 1012.76 1013.02 1013.39 1013.74 1014.06 1014.26 1014.53 1014.80 1014.95 1015.03 1015.23 1015.44 1015.74 1015.62 1015.74 1015.80 1015.81 1015.86 1016.09
1011.37 1010.92 1010.43 1010.14 1009.96 1009.61 1009.09 1008.94 1008.33 1007.78 1007.06 1006.75 1007.12 1006.70 1006.46 1006.59 1007.19 1007.28 1007.44 1007.84 1008.32 1008.72 1008.98 1009.53 1010.17 1010.70 1011.11 1011.21 1011.58 1011.94 1012.35 1012.83 1013.07 1013.44 1013.91 1014.14 1014.28 1014.53 1014.70 1014.74 1014.94 1015.18 1015.04 1015.12 1015.27 1015.17 1015.47 1015.53 1015.56
1011.06 1010.35 1010.41 1009.96 1009.70 1009.47 1009.30 1008.66 1008.12 1007.53 1007.48 1006.88 1006.90 1006.90 1006.54 1006.57 1007.21 1007.49 1007.89 1007.77 1007.95 1008.31 1008.66 1009.12 1009.81 1010.34 1010.81 1011.26 1011.43 1011.74 1012.01 1012.55 1012.83 1013.30 1013.66 1013.87 1014.00 1014.37 1014.50 1014.67 1014.84 1014.97 1014.97 1014.93 1015.00 1015.07 1015.06 1015.27 1015.19
1010.14 1009.82 1009.54 1009.47 1009.23 1009.13 1008.95 1008.01 1008.01 1007.82 1007.78 1006.86 1006.54 1006.41 1006.41 1006.26 1006.46 1006.68 1007.45 1007.78 1007.76 1007.91 1008.08 1008.82 1009.43 1009.98 1010.55 1011.01 1011.43 1011.69 1011.85 1012.09 1012.48 1012.89 1013.14 1013.63 1013.93 1014.27 1014.14 1014.42 1014.44 1014.51 1014.65 1014.82 1014.72 1014.93 1015.01 1014.97 1014.84
1009.91 1009.71 1009.14 1008.68 1008.48 1008.53 1008.56 1007.70 1007.02 1007.71 1007.41 1006.80 1006.12 1005.74 1005.82 1005.73 1005.77 1006.19 1006.59 1007.30 1007.93 1007.90 1008.18 1008.66 1009.39 1010.00 1010.48 1010.79 1011.22 1011.46 1011.62 1011.89 1012.08 1012.51 1012.94 1013.12 1013.55 1013.97 1014.16 1014.10 1014.15 1013.99 1014.30 1014.47 1014.44 1014.49 1014.49 1014.65 1014.51
1009.61 1009.65 1008.41 1006.81 1007.46 1007.29 1007.98 1006.76 1006.52 1006.74 1006.53 1006.11 1006.02 1005.55 1005.36 1005.29 1005.77 1006.07 1006.60 1006.98 1007.59 1007.96 1008.41 1008.77 1008.94 1009.60 1010.40 1010.65 1011.00 1011.29 1011.45 1011.63 1011.88 1012.11 1012.45 1012.80 1013.08 1013.45 1013.66 1013.65 1013.55 1013.54 1013.86 1013.80 1013.87 1013.96 1014.03 1013.97 1013.84
1009.31 1008.31 1007.82 1007.02 1006.55 1006.57 1006.93 1005.98 1005.43 1005.50 1005.56 1005.36 1005.42 1005.22 1005.42 1005.07 1004.56 1004.90 1006.30 1006.92 1007.53 1007.91 1008.38 1008.52 1008.78 1009.44 1010.01 1010.56 1010.86 1011.10 1011.23 1011.50 1011.80 1012.15 1012.22 1012.43 1012.69 1012.96 1013.41 1013.29 1013.12 1013.39 1013.39 1013.50 1013.65 1013.67 1013.91 1013.63 1013.31
1008.24 1008.28 1007.47 1006.59 1006.08 1006.25 1005.93 1004.95 1004.31 1004.09 1004.49 1004.52 1004.54 1004.82 1004.93 1004.76 1005.06 1005.06 1006.32 1006.97 1007.49 1007.83 1008.16 1008.50 1008.77 1009.37 1009.86 1010.45 1010.96 1011.16 1011.33 1011.48 1011.51 1011.72 1011.92 1012.16 1012.35 1012.56 1012.86 1012.82 1013.04 1013.10 1013.11 1013.06 1013.12 1013.33 1013.22 1013.27 1012.89
1008.21 1007.90 1007.03 1005.81 1005.72 1005.67 1004.75 1003.94 1003.65 1003.94 1004.21 1003.99 1003.90 1004.51 1004.62 1004.45 1004.08 1004.42 1006.18 1006.97 1007.71 1007.88 1008.29 1008.77 1008.78 1009.28 1009.61 1010.27 1010.73 1010.93 1011.06 1011.24 1011.61 1011.71 1011.77 1011.83 1011.95 1012.24 1012.46 1012.50 1012.55 1012.76 1012.96 1012.80 1012.87 1012.96 1012.89 1012.71 1012.57
1007.94 1007.46 1006.22 1005.60 1005.03 1005.27 1004.41 1003.50 1003.02 1003.81 1003.68 1003.28 1003.55 1003.92 1003.93 1003.98 1004.76 1005.46 1006.09 1007.10 1007.52 1008.14 1008.66 1008.88 1009.20 1009.52 1009.83 1010.37 1010.61 1010.84 1010.90 1011.58 1011.60 1011.73 1011.66 1011.64 1011.66 1011.93 1012.06 1012.16 1012.21 1012.38 1012.36 1012.49 1012.46 1012.53 1012.37 1012.22 1012.38
1007.03 1006.57 1005.79 1005.44 1004.91 1004.53 1004.39 1003.72 1003.35 1003.13 1003.55 1003.40 1003.83 1003.68 1004.07 1003.89 1004.73 1005.61 1005.92 1006.87 1007.64 1008.34 1008.63 1008.79 1009.33 1009.79 1009.94 1010.44 1010.91 1011.33 1011.50 1011.70 1011.91 1011.82 1011.84 1011.92 1011.94 1011.98 1011.97 1011.94 1012.01 1012.14 1012.20 1011.88 1012.01 1011.98 1011.91 1011.61 1011.53
1005.71 1005.73 1005.51 1005.13 1005.01 1003.85 1004.43 1003.10 1003.13 1003.40 1003.13 1003.11 1003.52 1003.75 1003.88 1004.32 1005.01 1005.76 1006.27 1007.37 1007.80 1008.74 1008.76 1009.09 1009.40 1009.67 1010.01 1010.48 1010.56 1010.64 1010.72 1010.96 1011.21 1011.29 1011.48 1011.55 1011.64 1011.71 1011.58 1011.52 1011.64 1011.70 1011.57 1011.55 1011.42 1011.39 1011.45 1011.36 1010.86
1004.98 1004.93 1004.75 1004.76 1004.51 1004.48 1004.02 1003.32 1003.13 1003.52 1003.39 1003.68 1003.44 1004.02 1004.48 1004.93 1005.46 1006.16 1006.54 1007.51 1008.27 1008.72 1009.19 1009.51 1009.94 1010.33 1010.76 1011.00 1010.94 1010.87 1011.11 1011.32 1011.48 1011.67 1011.88 1011.98 1012.06 1011.84 1011.71 1011.59 1011.61 1011.54 1011.34 1011.12 1011.10 1011.05 1011.06 1010.80 1010.50
1004.85 1004.93 1004.95 1005.01 1004.70 1004.35 1004.03 1003.63 1003.01 1003.20 1003.33 1003.62 1004.40 1004.69 1005.28 1005.65 1005.93 1006.71 1007.30 1007.77 1008.35 1009.09 1009.70 1009.83 1010.31 1010.56 1010.99 1011.08 1011.45 1011.85 1012.20 1012.43 1012.40 1012.52 1012.53 1012.31 1012.22 1012.02 1011.72 1011.44 1011.40 1011.26 1011.11 1011.00 1010.74 1010.55 1010.35 1010.18 1009.88
1004.58 1004.50 1004.13 1004.43 1004.39 1003.98 1004.47 1003.91 1003.14 1003.75 1004.06 1004.24 1004.24 1004.92 1005.52 1005.86 1005.98 1006.70 1007.54 1008.28 1008.92 1009.46 1010.15 1010.45 1011.00 1011.35 1011.80 1012.13 1012.43 1012.62 1012.87 1013.05 1012.74 1012.71 1012.58 1012.55 1012.08 1011.75 1011.45 1011.41 1011.06 1010.78 1010.65 1010.47 1010.39 1010.12 1009.82 1009.46 1009.11
1003.77 1003.80 1003.45 1003.67 1004.10 1004.15 1004.83 1003.75 1003.41 1004.14 1004.41 1004.56 1004.83 1005.46 1006.05 1006.70 1007.28 1007.85 1008.53 1009.12 1009.73 1010.46 1010.98 1011.41 1011.86 1012.17 1012.52 1012.54 1012.84 1013.04 1013.17 1012.98 1012.82 1012.91 1012.79 1012.33 1011.90 1011.55 1011.51 1011.37 1011.00 1010.70 1010.39 1010.15 1009.89 1009.50 1009.16 1008.89 1008.49
1003.75 1003.97 1004.30 1004.28 1005.06 1004.61 1004.29 1004.28 1003.91 1004.23 1004.53 1004.88 1005.46 1006.01 1006.74 1007.39 1007.98 1008.77 1009.54 1010.20 1010.81 1011.39 1011.97 1012.26 1012.51 1012.75 1012.77 1012.93 1012.93 1013.00 1013.09 1013.27 1013.01 1012.88 1012.66 1012.09 1011.77 1011.38 1011.19 1010.95 1010.76 1010.55 1010.30 1009.96 1009.64 1009.02 1008.51 1008.23 1007.85
1003.21 1003.83 1004.43 1004.48 1004.66 1004.52 1004.45 1004.30 1003.45 1004.10 1004.80 1005.26 1005.74 1006.33 1007.16 1008.00 1008.74 1009.55 1010.26 1010.90 1011.42 1011.93 1012.38 1012.69 1012.93 1013.06 1013.23 1013.35 1013.15 1012.96 1013.00 1012.92 1012.74 1012.28 1011.95 1011.78 1011.49 1011.35 1011.09 1010.75 1010.46 1010.21 1009.89 1009.54 1009.17 1008.42 1007.80 1007.45 1006.89
1003.90 1003.74 1004.51 1004.88 1005.25 1004.80 1004.48 1004.23 1004.28 1004.27 1004.77 1005.38 1006.25 1007.07 1007.78 1008.50 1009.21 1010.01 1010.70 1011.36 1011.77 1012.18 1012.44 1012.70 1012.81 1012.78 1012.83 1012.74 1012.82 1012.74 1012.58 1012.38 1012.14 1012.13 1011.74 1011.46 1011.35 1011.02 1010.60 1010.25 1009.97 1009.70 1009.40 1009.08 1008.64 1008.08 1007.51 1006.81 1006.17
1004.00 1004.06 1004.23 1004.61 1005.47 1005.62 1005.28 1004.77 1005.05 1005.00 1005.37 1006.00 1006.76 1007.64 1008.53 1009.26 1010.02 1010.54 1010.90 1011.43 1011.76 1012.05 1012.26 1012.40 1012.58 1012.62 1012.59 1012.57 1012.43 1012.26 1012.20 1012.02 1011.77 1011.52 1011.35 1011.09 1010.70 1010.38 1010.11 1009.84 1009.58 1009.22 1008.85 1008.54 1008.18 1007.58 1006.94 1006.08 1005.20
Thickness
5759 5766 5770 5770 5749 5747 5750 5765 5778 5783 5788 5805 5810 5808 5814 5822 5820 5812 5842 5845 5845 5841 5836 5831 5828 5826 5823 5821 5821 5820 5816 5813 5811 5809 5806 5805 5804 5801 5798 5797 5794 5791 5789 5786 5784 5783 5782 5781 5779
5756 5762 5761 5752 5737 5735 5756 5768 5771 5777 5789 5805 5811 5813 5811 5815 5831 5830 5835 5840 5842 5837 5832 5827 5823 5823 5820 5818 5816 5817 5815 5812 5810 5808 5806 5804 5802 5800 5797 5795 5791 5788 5786 5784 5783 5781 5780 5778 5778
5752 5755 5745 5737 5733 5740 5753 5769 5776 5779 5791 5796 5800 5818 5816 5816 5829 5832 5842 5839 5837 5833 5828 5825 5821 5819 5817 5814 5814 5814 5814 5811 5807 5805 5805 5802 5798 5797 5795 5792 5790 5787 5785 5783 5781 5780 5778 5776 5775
5746 5742 5732 5722 5734 5747 5759 5766 5767 5774 5790 5797 5800 5799 5817 5822 5828 5836 5838 5836 5833 5830 5826 5821 5818 5816 5813 5813 5810 5811 5810 5808 5806 5804 5802 5800 5796 5794 5792 5790 5788 5786 5784 5782 5780 5778 5775 5773 5771
5735 5731 5716 5716 5735 5747 5755 5758 5767 5763 5775 5784 5792 5795 5803 5813 5823 5829 5829 5831 5830 5828 5824 5820 5817 5814 5811 5812 5810 5809 5807 5805 5803 5801 5800 5797 5794 5792 5789 5787 5784 5782 5780 5779 5777 5775 5773 5771 5769
5719 5722 5708 5716 5734 5740 5749 5760 5760 5760 5772 5780 5785 5791 5798 5811 5813 5818 5823 5824 5826 5822 5821 5818 5812 5811 5809 5808 5809 5806 5803 5802 5800 5798 5796 5794 5791 5789 5786 5784 5781 5779 5777 5776 5774 5773 5771 5769 5766
5715 5712 5715 5719 5723 5729 5739 5755 5752 5758 5765 5771 5785 5781 5796 5799 5809 5812 5815 5817 5818 5818 5815 5813 5810 5806 5804 5802 5802 5802 5800 5799 5797 5795 5792 5789 5787 5784 5782 5780 5778 5777 5774 5772 5770 5769 5768 5767 5765
5708 5709 5704 5707 5714 5724 5743 5748 5755 5754 5756 5779 5788 5772 5781 5795 5800 5803 5805 5808 5808 5813 5812 5809 5806 5804 5801 5798 5796 5796 5794 5794 5791 5789 5786 5783 5780 5777 5776 5775 5774 5772 5770 5769 5767 5765 5764 5763 5762
5697 5692 5698 5704 5705 5723 5735 5733 5746 5755 5754 5758 5770 5781 5790 5792 5793 5792 5793 5796 5800 5802 5805 5804 5801 5799 5796 5795 5791 5786 5785 5784 5783 5780 5779 5776 5775 5773 5771 5770 5768 5765 5764 5763 5762 5761 5759 5758 5757
5689 5687 5692 5702 5709 5713 5725 5727 5732 5733 5743 5749 5751 5778 5785 5782 5783 5784 5785 5786 5792 5795 5796 5799 5796 5794 5791 5788 5786 5781 5779 5778 5776 5773 5771 5771 5769 5768 5767 5765 5762 5760 5759 5758 5757 5756 5755 5754 5756
5677 5683 5686 5692 5700 5707 5717 5716 5722 5720 5729 5745 5739 5762 5774 5776 5774 5778 5782 5784 5784 5789 5793 5792 5788 5787 5786 5785 5780 5779 5776 5773 5771 5769 5766 5766 5765 5762 5761 5760 5758 5757 5755 5754 5753 5752 5752 5752 5750
5668 5675 5681 5685 5690 5692 5697 5707 5710 5722 5730 5745 5742 5751 5764 5765 5766 5770 5773 5776 5777 5780 5785 5787 5785 5781 5777 5778 5776 5774 5771 5767 5766 5764 5761 5760 5760 5758 5756 5756 5754 5752 5753 5751 5749 5750 5747 5747 5747
5662 5672 5671 5678 5682 5683 5686 5694 5706 5716 5723 5732 5737 5742 5749 5757 5756 5759 5763 5771 5776 5776 5779 5781 5779 5776 5773 5770 5769 5768 5766 5761 5761 5758 5756 5755 5755 5753 5751 5750 5749 5748 5747 5747 5746 5745 5745 5743 5743
5667 5669 5671 5671 5673 5673 5671 5687 5697 5701 5710 5717 5725 5732 5738 5748 5753 5759 5756 5760 5768 5773 5775 5773 5771 5768 5766 5763 5761 5761 5760 5760 5757 5756 5754 5750 5747 5745 5746 5744 5744 5743 5741 5740 5741 5739 5738 5738 5738
5659 5653 5661 5660 5664 5664 5665 5666 5677 5687 5695 5699 5709 5723 5733 5741 5749 5753 5758 5755 5756 5760 5760 5761 5760 5759 5758 5757 5755 5754 5753 5753 5754 5752 5748 5746 5742 5740 5739 5741 5740 5739 5736 5735 5735 5734 5734 5733 5734
5647 5641 5643 5673 5662 5665 5656 5652 5673 5680 5685 5688 5695 5707 5716 5732 5737 5745 5749 5750 5750 5749 5751 5752 5753 5750 5748 5749 5747 5746 5745 5746 5746 5745 5742 5739 5738 5736 5735 5736 5735 5733 5730 5731 5731 5730 5729 5729 5729
5635 5639 5636 5648 5661 5660 5649 5648 5671 5675 5680 5683 5687 5697 5706 5715 5734 5747 5744 5746 5745 5741 5738 5740 5744 5739 5737 5736 5737 5735 5735 5736 5736 5736 5736 5734 5732 5730 5727 5729 5730 5726 5725 5724 5723 5722 5720 5722 5724
5634 5629 5637 5640 5657 5650 5648 5652 5669 5675 5676 5682 5687 5698 5707 5713 5725 5743 5739 5734 5731 5735 5735 5734 5733 5729 5728 5723 5723 5725 5725 5727 5728 5729 5728 5726 5724 5722 5721 5721 5719 5718 5719 5719 5719 5717 5718 5716 5718
5634 5632 5635 5653 5659 5649 5654 5660 5666 5669 5672 5680 5695 5697 5702 5710 5734 5744 5726 5725 5719 5726 5723 5722 5721 5721 5721 5715 5715 5717 5718 5720 5719 5720 5720 5720 5718 5716 5714 5715 5715 5712 5710 5712 5711 5709 5707 5708 5710
5629 5628 5639 5651 5659 5650 5656 5662 5676 5670 5676 5691 5695 5696 5700 5712 5715 5722 5719 5711 5712 5711 5709 5710 5710 5713 5714 5712 5712 5711 5713 5709 5712 5711 5712 5712 5712 5709 5707 5708 5707 5706 5705 5704 5703 5700 5699 5702 5702
5630 5633 5639 5642 5654 5659 5653 5656 5665 5679 5677 5687 5691 5703 5704 5710 5706 5709 5718 5711 5706 5703 5703 5706 5705 5705 5708 5706 5702 5699 5698 5699 5698 5700 5701 5700 5699 5699 5698 5698 5699 5696 5695 5697 5695 5694 5691 5690 5695
5632 5645 5643 5646 5642 5648 5651 5651 5663 5668 5677 5683 5690 5694 5703 5702 5703 5701 5705 5698 5699 5694 5699 5700 5699 5699 5700 5698 5697 5698 5698 5695 5697 5696 5695 5694 5693 5691 5692 5692 5690 5689 5689 5688 5687 5687 5684 5683 5683
5641 5647 5648 5648 5647 5643 5651 5655 5665 5665 5668 5676 5685 5688 5692 5694 5695 5693 5694 5692 5692 5691 5691 5692 5690 5688 5685 5683 5685 5687 5684 5683 5683 5682 5679 5677 5677 5678 5678 5678 5677 5677 5677 5676 5674 5674 5672 5673 5673
5642 5638 5636 5636 5640 5633 5645 5651 5663 5668 5673 5677 5676 5679 5681 5685 5688 5686 5687 5687 5685 5682 5680 5681 5679 5677 5676 5675 5671 5666 5663 5660 5662 5660 5659 5662 5663 5663 5664 5665 5665 5665 5664 5663 5664 5665 5666 5665 5665
5636 5634 5628 5623 5625 5634 5635 5644 5665 5666 5670 5674 5680 5677 5678 5682 5686 5684 5679 5676 5675 5672 5669 5668 5664 5660 5659 5656 5653 5652 5650 5647 5649 5648 5649 5647 5652 5653 5655 5654 5656 5656 5655 5655 5654 5655 5655 5656 5658
5633 5639 5634 5612 5618 5635 5629 5638 5660 5664 5667 5670 5673 5672 5671 5668 5668 5667 5664 5663 5660 5656 5654 5652 5648 5647 5645 5645 5642 5640 5639 5640 5641 5637 5637 5640 5643 5645 5644 5644 5645 5645 5644 5644 5645 5647 5648 5649 5650
5626 5625 5635 5621 5609 5624 5633 5639 5657 5657 5656 5658 5657 5658 5655 5655 5655 5652 5648 5645 5642 5638 5634 5633 5633 5632 5633 5631 5631 5630 5628 5625 5626 5625 5624 5629 5632 5634 5634 5633 5631 5631 5630 5631 5632 5636 5639 5640 5641
5634 5634 5619 5621 5606 5607 5621 5623 5646 5647 5642 5645 5646 5646 5645 5642 5640 5636 5633 5630 5628 5627 5624 5622 5620 5619 5617 5616 5618 5619 5617 5616 5616 5618 5619 5619 5619 5617 5618 5618 5619 5620 5620 5621 5622 5626 5629 5629 5631
5619 5623 5614 5617 5611 5610 5612 5622 5639 5645 5644 5640 5638 5636 5633 5630 5626 5623 5620 5617 5616 5615 5614 5613 5613 5613 5612 5612 5611 5609 5607 5607 5607 5604 5605 5606 5605 5606 5607 5608 5608 5607 5607 5607 5609 5612 5614 5617 5621
5617 5616 5621 5613 5604 5604 5607 5616 5626 5631 5633 5632 5629 5621 5617 5615 5612 5611 5612 5609 5608 5607 5606 5606 5604 5603 5602 5602 5601 5600 5599 5598 5598 5597 5596 5597 5598 5598 5597 5596 5595 5595 5595 5595 5595 5597 5600 5607 5614